This is the latest recevied weather packets stored in our database for station/object KF0WJA. If no packets are shown the sender has not sent any weather packets the latest 10 day(s).
| Time | Temp. | Humidity | Pressure | Rain* | Wind** | Luminosity | Snow |
|---|---|---|---|---|---|---|---|
| 1787585292 | 26.11° C | 67% | 1016.5 hPa | 0 mm | - | 240 W/m² | - |
| 1787584992 | 26.11° C | 66% | 1016 hPa | 0 mm | - | 224 W/m² | - |
| 1787584687 | 26.11° C | 66% | 1016.1 hPa | 0 mm | - | 237 W/m² | - |
| 1787584385 | 26.11° C | 65% | 1016.3 hPa | 0 mm | - | 562 W/m² | - |
| 1787584084 | 26.67° C | 66% | 1016.2 hPa | 0 mm | - | 560 W/m² | - |
| 1787583779 | 25° C | 67% | 1016.1 hPa | 0 mm | - | 456 W/m² | - |
| 1787583479 | 25° C | 69% | 1016 hPa | 0 mm | - | 371 W/m² | - |
| 1787583178 | 25.56° C | 68% | 1015.7 hPa | 0 mm | - | 184 W/m² | - |
| 1787582873 | 25° C | 68% | 1015.8 hPa | 0 mm | - | 377 W/m² | - |
| 1787582568 | 25° C | 69% | 1015.8 hPa | 0 mm | - | 175 W/m² | - |
| 1787582264 | 24.44° C | 70% | 1015.6 hPa | 0 mm | - | 160 W/m² | - |
| 1787581963 | 24.44° C | 69% | 1015.5 hPa | 0 mm | - | 164 W/m² | - |
| 1787581658 | 25° C | 67% | 1015.4 hPa | 0 mm | - | 206 W/m² | - |
| 1787581354 | 24.44° C | 68% | 1015.2 hPa | 0 mm | - | 299 W/m² | - |
| 1787581054 | 24.44° C | 68% | 1015.2 hPa | 0 mm | - | 282 W/m² | - |
| 1787580750 | 23.89° C | 69% | 1015.1 hPa | 0 mm | - | 232 W/m² | - |
| 1787580445 | 22.78° C | 71% | 1015 hPa | 0 mm | - | 232 W/m² | - |
| 1787580140 | 23.33° C | 71% | 1015 hPa | 0 mm | - | 87 W/m² | - |
| 1787579840 | 23.33° C | 70% | 1014.9 hPa | 0 mm | - | 108 W/m² | - |
| 1787579535 | 23.33° C | 69% | 1014.9 hPa | 0 mm | - | 114 W/m² | - |
| 1787579230 | 23.33° C | 69% | 1015 hPa | 0 mm | - | 155 W/m² | - |
| 1787578925 | 23.33° C | 69% | 1014.8 hPa | 0 mm | - | 197 W/m² | - |
| 1787578621 | 22.78° C | 70% | 1014.8 hPa | 0 mm | - | 150 W/m² | - |
| 1787578321 | 22.78° C | 70% | 1014.9 hPa | 0 mm | - | 135 W/m² | - |
| 1787578016 | 22.78° C | 69% | 1014.9 hPa | 0 mm | - | 160 W/m² | - |
* Rain latest hour (hover to see other rain measurements)
** Current wind speed in m/s (hover to see current wind gust speed)